Overview Statistics Trail Chart Weather Telemetry Raw packets
 

This is the latest recevied weather packets stored in our database for station/object 9W2EXL-13. If no packets are shown the sender has not sent any weather packets the latest 10 day(s).

<< 14 15 16 17 18 >>
Time Temp. Humidity Pressure Rain* Wind** Luminosity Snow
1787887252 33.33° C 85% 1012.2 hPa - - - -
1787880051 28.89° C 100% 1012.7 hPa - - - -
1787865650 30° C 98% 1010.5 hPa - - - -
1787851251 31.11° C 97% 1012.7 hPa - - - -
1787849448 31.11° C 97% 1013 hPa - - - -
1787844047 31.67° C 96% 1012.7 hPa - - - -
1787836849 32.22° C 94% 1010.9 hPa - - - -
1787835949 32.78° C 92% 1010.8 hPa - - - -
1787835049 32.78° C 88% 1010.7 hPa - - - -
1787833249 33.33° C 87% 1010.1 hPa - - - -
1787832349 33.33° C 87% 1009.9 hPa - - - -
1787826948 34.44° C 79% 1008.7 hPa - - - -
1787822445 36.11° C 66% 1009.1 hPa - - - -
1787813444 35.56° C 73% 1010.2 hPa - - - -
1787811645 35.56° C 71% 1010.5 hPa - - - -
1787810744 35.56° C 72% 1010.7 hPa - - - -
1787808943 35.56° C 74% 1011.2 hPa - - - -
1787806243 35° C 74% 1012.1 hPa - - - -
1787803543 33.33° C 83% 1012.6 hPa - - - -
1787801748 33.33° C 86% 1012.9 hPa - - - -
1787799943 32.78° C 89% 1013.3 hPa - - - -
1787799042 32.22° C 92% 1013.3 hPa - - - -
1787790942 30° C 100% 1012.5 hPa - - - -
1787789141 30° C 100% 1011.9 hPa - - - -
1787779241 30° C 100% 1011.3 hPa - - - -

* Rain since midnight (hover to see other rain measurements)
** Current wind speed in m/s (hover to see current wind gust speed)